SV2LPQ-2 Weather Reports


time (UTC)temp
F
wind
direction
speed
knots
gust
knots
rain 1hr
in
rain 24hr
in
rain mn
in
humidity
%
barometer
mb
20260504020104 42 112 0.0 0.0 0.00 0.00 0.00 73 1042.5
20260504015244 42 103 0.0 0.0 0.00 0.00 0.00 74 1042.5
20260504014423 41 90 0.0 0.0 0.00 0.00 0.00 74 1042.5
20260504013603 41 90 0.0 0.0 0.00 0.00 0.00 74 1042.5
20260504012743 42 68 0.0 0.0 0.00 0.00 0.00 73 1042.5
20260504011923 42 68 0.0 0.0 0.00 0.00 0.00 73 1042.5
20260504011103 42 135 0.0 0.0 0.00 0.00 0.00 72 1042.5
20260504010243 43 135 0.0 0.0 0.00 0.00 0.00 70 1042.5
20260504005422 43 135 0.0 0.0 0.00 0.00 0.00 69 1042.5
20260504004602 44 135 0.0 0.0 0.00 0.00 0.00 69 1042.5
20260504003742 44 158 0.0 0.0 0.00 0.00 0.00 67 1042.5
20260504002922 44 158 0.0 0.0 0.00 0.00 0.00 65 1042.5
20260504002102 44 180 0.0 0.0 0.00 0.00 0.00 66 1042.5
20260504001242 44 158 0.0 1.7 0.00 0.00 0.00 68 1042.5
20260504000423 44 158 0.0 0.0 0.00 0.00 0.00 67 1042.5
20260503235601 45 158 0.0 0.0 0.00 0.00 0.00 66 1042.5
20260503234741 45 158 0.0 0.0 0.00 0.00 0.00 65 1042.5
20260503233921 45 158 0.0 0.0 0.00 0.00 0.00 66 1042.5
20260503233100 45 0 0.0 0.0 0.00 0.00 0.00 68 1042.5
20260503232240 45 0 0.0 0.0 0.00 0.00 0.00 68 1042.5
20260503231420 45 0 0.0 0.0 0.00 0.00 0.00 66 1042.5
20260503230600 45 0 0.0 0.0 0.00 0.00 0.00 66 1042.5
20260503225740 46 338 0.0 0.0 0.00 0.00 0.00 65 1042.5
20260503224919 46 338 0.0 0.0 0.00 0.00 0.00 65 1042.5
20260503224059 46 338 0.0 0.0 0.00 0.00 0.00 64 1042.5
20260503223239 47 338 0.0 0.0 0.00 0.00 0.00 62 1042.5
20260503222419 48 338 0.0 0.0 0.00 0.00 0.00 58 1042.5
20260503221558 49 112 0.0 0.0 0.00 0.00 0.00 56 1042.5
20260503220738 50 112 0.0 0.9 0.00 0.00 0.00 54 1042.5
20260503215918 50 135 0.0 0.0 0.00 0.00 0.00 53 1042.5
20260503215058 50 135 0.0 1.7 0.00 0.00 0.00 53 1042.5
20260503214238 50 154 0.9 1.7 0.00 0.00 0.00 53 1042.5
20260503213417 50 136 0.9 2.6 0.00 0.00 0.00 54 1042.5
20260503212557 50 154 0.0 1.7 0.00 0.00 0.00 55 1042.5
20260503211737 50 112 0.0 0.0 0.00 0.00 0.00 54 1042.5
20260503210917 50 137 0.9 1.7 0.00 0.00 0.00 54 1042.5
20260503210057 51 155 0.0 0.9 0.00 0.00 0.00 53 1042.5
20260503205236 52 112 0.0 0.0 0.00 0.00 0.00 50 1042.5
20260503204416 53 126 0.9 2.6 0.00 0.00 0.00 49 1042.5
20260503203556 53 114 0.9 0.9 0.00 0.00 0.00 49 1042.5
20260503202736 53 112 0.0 0.0 0.00 0.00 0.00 48 1042.5
20260503201916 54 158 1.7 2.6 0.00 0.00 0.00 46 1042.5
20260503201056 54 126 0.9 0.0 0.00 0.00 0.00 46 1042.5
20260503200235 55 112 0.9 4.3 0.00 0.00 0.00 46 1042.5
20260503195415 54 133 2.6 4.3 0.00 0.00 0.00 46 1042.5
20260503194555 55 144 2.6 4.3 0.00 0.00 0.00 45 1042.5
20260503193735 56 172 1.7 7.8 0.00 0.00 0.00 44 1042.5
20260503192915 56 112 0.0 0.0 0.00 0.00 0.00 43 1042.5
20260503192055 55 171 5.2 8.7 0.00 0.00 0.00 46 1042.5
20260503191235 55 155 1.7 6.1 0.00 0.00 0.00 45 1042.5
20260503190414 56 158 2.6 6.1 0.00 0.00 0.00 45 1042.5
20260503185554 58 158 0.0 0.0 0.00 0.00 0.00 40 1042.5
20260503184734 58 133 1.7 4.3 0.00 0.00 0.00 39 1042.5
20260503183914 58 90 0.9 0.9 0.00 0.00 0.00 39 1042.5
20260503183054 59 90 0.0 0.0 0.00 0.00 0.00 38 1042.5
20260503182234 59 90 0.0 0.9 0.00 0.00 0.00 37 1042.5
20260503181413 60 68 0.0 0.0 0.00 0.00 0.00 37 1042.5
20260503180553 60 90 1.7 1.7 0.00 0.00 0.00 37 1042.5
20260503174913 60 115 0.9 1.7 0.00 0.00 0.00 38 1042.5
20260503174053 61 122 2.6 5.2 0.00 0.00 0.00 39 1042.5
20260503173233 61 116 0.9 2.6 0.00 0.00 0.00 39 1042.5
20260503172413 61 135 0.0 0.0 0.00 0.00 0.00 38 1042.5
20260503171553 61 22 1.7 0.0 0.00 0.00 0.00 37 1042.5
20260503170733 61 90 0.0 0.0 0.00 0.00 0.00 38 1042.5
20260503150233 67 135 0.0 0.0 0.00 0.00 0.00 28 1042.5
20260503131412 69 31 1.7 4.3 0.00 0.00 0.00 29 1042.5
20260503130551 69 47 5.2 7.8 0.00 0.00 0.00 28 1042.5
20260503100229 65 25 4.3 6.1 0.00 0.00 0.00 32 1042.5
20260503090407 64 35 5.2 4.3 0.00 0.00 0.00 32 1042.5
20260503080917 61 0 1.7 4.3 0.00 0.00 0.00 34 1042.5
20260503072737 60 3 2.6 7.0 0.00 0.00 0.00 37 1042.5
20260503071916 59 36 4.3 7.0 0.00 0.00 0.00 38 1042.5
20260503071056 59 16 1.7 6.1 0.00 0.00 0.00 39 1042.5
20260503070236 59 27 1.7 4.3 0.00 0.00 0.00 38 1042.5
20260503054736 55 71 0.0 0.0 0.00 0.00 0.00 52 1042.5
20260503053916 53 47 0.0 1.7 0.00 0.00 0.00 55 1042.5
20260503053056 53 60 0.0 1.7 0.00 0.00 0.00 57 1042.5
20260503052236 54 30 0.0 0.0 0.00 0.00 0.00 58 1042.5
20260503051416 53 17 0.0 0.0 0.00 0.00 0.00 63 1042.5
20260503050556 52 25 0.0 0.0 0.00 0.00 0.00 66 1042.5
20260503045736 50 29 0.9 1.7 0.00 0.00 0.00 67 1042.5
20260503044916 50 94 0.0 0.0 0.00 0.00 0.00 67 1042.5
20260503044056 50 85 0.9 2.6 0.00 0.00 0.00 66 1042.5
20260503043236 50 78 0.0 0.0 0.00 0.00 0.00 67 1042.5
20260503042416 49 13 0.0 0.0 0.00 0.00 0.00 69 1042.5
20260503041556 48 22 0.0 0.0 0.00 0.00 0.00 72 1042.5
20260503040737 47 90 0.0 1.7 0.00 0.00 0.00 73 1042.5
20260503035916 47 112 0.0 0.0 0.00 0.00 0.00 73 1042.5
20260503035056 47 90 0.0 0.0 0.00 0.00 0.00 72 1042.5
20260503034236 47 45 0.0 0.0 0.00 0.00 0.00 72 1042.5
20260503033416 47 121 0.0 0.9 0.00 0.00 0.00 72 1042.5
20260503032556 47 135 0.0 0.0 0.00 0.00 0.00 72 1042.5
20260503031736 47 112 0.0 0.0 0.00 0.00 0.00 72 1042.5
20260503030916 47 45 0.0 0.0 0.00 0.00 0.00 72 1042.5
20260503030055 47 22 0.0 0.0 0.00 0.00 0.00 73 1042.5
20260503025236 47 112 0.0 0.0 0.00 0.00 0.00 74 1042.5
20260503024415 47 84 0.0 0.0 0.00 0.00 0.00 73 1042.5
20260503023555 47 24 0.0 0.0 0.00 0.00 0.00 73 1042.5
20260503022736 47 92 0.0 0.0 0.00 0.00 0.00 74 1042.5
20260503021915 48 112 0.0 0.0 0.00 0.00 0.00 72 1042.5
20260503021055 48 112 0.0 0.0 0.00 0.00 0.00 73 1042.5
20260503020236 47 112 0.0 0.0 0.00 0.00 0.00 75 1042.5